{"data":{"norad_id":65083,"intl_designator":"2025-167F","name":"STARLINK-34247","alt_names":[],"object_type":"PAYLOAD","status":"ACTIVE","operator":null,"country":"US","launch_date":"2025-08-04","launch_site_code":"AFETR","launch_vehicle":null,"mission":null,"orbit_class":"UNKNOWN","rcs_meters":null,"size_class":null,"mass_kg":null,"dimensions":null,"purposes":["comms"],"wikipedia_slug":null,"has_3d_model":false,"image_url":null,"decayed_at":null,"tle_current":{"epoch":"2026-09-19T13:21:46.382112Z","epoch_age_seconds":201708,"freshness":"STALE","line1":"1 65083U 25167F   26262.55678683  .00014920  00000+0  45169-3 0  9992","line2":"2 65083  53.1596 201.8246 0000771 105.6830 254.4258 15.34408973 63221","mean_motion":15.34408973,"eccentricity":7.71e-5,"inclination_deg":53.1596,"raan_deg":201.8246,"arg_perigee_deg":105.683,"mean_anomaly_deg":254.4258,"bstar":0.00045169,"rev_number":6322,"period_min":93.847209273326,"perigee_km":462.1491439638,"apogee_km":463.2039974164,"semimajor_km":6840.8135706901,"source":"CELESTRAK","updated_at":"2026-09-21T09:00:35.521800Z"}}}